Regional Weather Roundup
Issued by NWS Jackson, KY

Home | Current Version | Previous Version | Graphics & Text | Print | Product List | Glossary On
Versions: 1 2 3 4 5 6 7 8 9 10 11 12 13 14 15 16 17 18 19 20 21 22 23 24 25 26 27
000
ASUS43 KJKL 182110
RWRJKL

EAST KENTUCKY HOURLY WEATHER ROUNDUP
NATIONAL WEATHER SERVICE JACKSON KY
400 PM EST WED JAN 18 2017

NOTE: "FAIR" INDICATES FEW OR NO CLOUDS BELOW 12,000 FEET WITH
NO SIGNIFICANT WEATHER AND/OR OBSTRUCTIONS TO VISIBILITY.

* THESE REPORTS ARE NOT UNDER NWS QUALITY CONTROL AND MAY NOT
  REPORT WEATHER SUCH AS PRECIPITATION AND FOG.

KYZ079-080-083-085-087-088-110-112-115-119-120-182200
...EASTERN KENTUCKY...

CITY           SKY/WX    TMP DP  RH WIND       PRES   REMARKS
JACKSON        CLOUDY    44  37  76 NW3       30.14S
LONDON         MOSUNNY   50  36  58 N5        30.13F
SOMERSET*      CLOUDY    48  36  61 CALM      30.15F
MONTICELLO*    CLOUDY    50  38  63 W3        30.16F
WILLIAMSBURG*  CLEAR     50  37  62 CALM      30.13F
MIDDLESBORO*   SUNNY     52  39  60 NE9       30.12F
HARLAN APT*    CLEAR     52  37  58 SW6       30.11S
PIKE CO APT*   CLOUDY    44  38  82 NW5       30.13F
BIG SANDY APT* CLOUDY    45  38  78 W3        30.14S
MOREHEAD APT*  CLOUDY    43  36  75 VRB6      30.17S
ASHLAND*       CLOUDY    45  37  76 N5        30.14F
$$

KYZ035-036-041-042-044-050-067-078-099-182200
...CENTRAL KENTUCKY...

CITY           SKY/WX    TMP DP  RH WIND       PRES   REMARKS
MT STERLING*   CLOUDY    43  37  81 W3        30.17S
FLEMING/MASON* CLOUDY    42  36  79 W5        30.16S
DANVILLE*      CLOUDY    45  36  70 CALM      30.15F
LEXINGTON      CLOUDY    44  36  73 SW9       30.16S
FRANKFORT      CLOUDY    44  35  70 W3        30.15F
LOUISVILLE     CLOUDY    45  35  68 N3        30.16F
LEBANON*         N/A     46  37  71 NW3       30.15F
GLASGOW*       MOSUNNY   49  38  64 CALM      30.16R
BOWLING GREEN  MOSUNNY   49  37  63 CALM      30.17S
$$

KYZ091>093-OHZ055-061-077-WVZ005-015-034-035-042-182200
...SOUTHERN OHIO/WEST VIRGINIA...

CITY           SKY/WX    TMP DP  RH WIND       PRES   REMARKS
COVINGTON      CLOUDY    41  36  82 SW6       30.14F
COLUMBUS       CLOUDY    41  33  73 SW8       30.13S
DAYTON         CLOUDY    37  35  92 SW13      30.12F WCI  29
WILMINGTON     CLOUDY    38  36  92 W9        30.12F WCI  31
HUNTINGTON     CLOUDY    45  36  70 CALM      30.14F
CHARLESTON     CLOUDY    45  36  70 W7        30.14R
PINEVILLE*     CLOUDY    45  36  70 MISG      30.17S
BECKLEY        CLOUDY    39  34  82 NW9       30.11R WCI  33
BLUEFIELD      CLOUDY    39  33  79 NW9       30.09S WCI  33
LOGAN CO APT*  CLOUDY    43  39  87 CALM      30.13S
$$

VAZ002-007-008-TNZ017-027-036-066-071-182200
...SOUTHWEST VIRGINIA/EAST TENNESSEE...

CITY           SKY/WX    TMP DP  RH WIND       PRES   REMARKS
WISE*          SUNNY     48  36  61 NW7       30.10S
JONESVILLE*      N/A     55  39  54 W3        30.12S
ABINGDON*      SUNNY     57  40  52 NE5       30.07F
BRISTOL        MOSUNNY   58  38  47 SW12      30.08S
MORRISTOWN*    CLEAR     57  39  51 W6        30.09S
SEVIERVILLE*   CLEAR     57  43  58 CALM      30.09F
KNOXVILLE      CLOUDY    60  41  49 CALM      30.09F
LAFOLLETTE*    CLEAR     55  41  58 VRB3      30.13S
OAK RIDGE      MOSUNNY   60  41  49 CALM      30.11F
CROSSVILLE     CLOUDY    53  39  59 CALM      30.12S
NASHVILLE      CLOUDY    49  39  68 E3        30.17S
$$

...KEY TO REMARKS...
VSB - VISIBILITY IN MILES
WCI - WIND CHILL INDEX
HX  - HEAT INDEX

$$




USA.gov is the U.S. government's official web portal to all federal, state and local government web resources and services.